STARLINK-36127

Last updated on Fri Dec 19 2025 00:02:08 GMT+0000 (Coordinated Universal Time)

1 66935U 25286L 25352.58336806 -.01315373 00000+0 -69832-2 0 9992 2 66935 53.1560 21.0336 0001058 70.1894 54.8628 15.82631655 2938
UTC large
Height (km)
Speed (km/s)
/
Latitude / Longitude
Inclination (degrees)
Orbital Period (minutes)
Azimuth
Elevation
Range (km)
Doppler Factor

Next 0 passes for location: London (51.5072 / 0.1276)

Sorry there are no passes over London.